Time,TemperatureF,DewpointF,PressureIn,WindDirection,WindDirectionDegrees,WindSpeedMPH,WindSpeedGustMPH,Humidity,HourlyPrecipIn,Conditions,Clouds,dailyrainin,SoftwareType,DateUTC
2013-09-04 00:09:00,61.2,55.0,30.07,NE,55,0.0,0.0,79,0.00,,,0.00,weatherlink.com 1.10,2013-09-04 05:09:00,
2013-09-04 00:24:00,60.7,54.0,30.07,NE,55,0.0,0.0,79,0.00,,,0.00,weatherlink.com 1.10,2013-09-04 05:24:00,
2013-09-04 00:39:00,60.6,54.0,30.07,NE,55,0.0,0.0,79,0.00,,,0.00,weatherlink.com 1.10,2013-09-04 05:39:00,
2013-09-04 00:54:00,60.5,54.0,30.08,NE,55,0.0,0.0,79,0.00,,,0.00,weatherlink.com 1.10,2013-09-04 05:54:00,
2013-09-04 01:09:00,60.7,55.0,30.08,South,169,3.0,4.0,80,0.00,,,0.00,weatherlink.com 1.10,2013-09-04 06:09:00,
2013-09-04 01:24:00,59.8,55.0,30.08,SSE,167,1.0,3.0,83,0.00,,,0.00,weatherlink.com 1.10,2013-09-04 06:24:00,
2013-09-04 01:39:00,59.9,56.0,30.07,SSE,165,3.0,4.0,88,0.00,,,0.00,weatherlink.com 1.10,2013-09-04 06:39:00,
2013-09-04 01:54:00,60.7,57.0,30.08,SSE,165,2.0,4.0,88,0.00,,,0.00,weatherlink.com 1.10,2013-09-04 06:54:00,
2013-09-04 02:09:00,60.7,57.0,30.08,SSE,166,0.0,2.0,88,0.00,,,0.00,weatherlink.com 1.10,2013-09-04 07:09:00,
2013-09-04 02:24:00,60.3,57.0,30.08,SSE,166,0.0,1.0,88,0.00,,,0.00,weatherlink.com 1.10,2013-09-04 07:24:00,
2013-09-04 02:39:00,60.2,57.0,30.08,SSE,166,0.0,0.0,88,0.00,,,0.00,weatherlink.com 1.10,2013-09-04 07:39:00,
2013-09-04 02:54:00,60.8,57.0,30.08,SSE,166,0.0,0.0,87,0.00,,,0.00,weatherlink.com 1.10,2013-09-04 07:54:00,
2013-09-04 03:09:00,61.3,57.0,30.09,SSE,166,0.0,2.0,87,0.00,,,0.00,weatherlink.com 1.10,2013-09-04 08:09:00,
2013-09-04 03:24:00,61.8,58.0,30.09,SSE,166,1.0,2.0,86,0.00,,,0.00,weatherlink.com 1.10,2013-09-04 08:24:00,
2013-09-04 03:39:00,61.4,58.0,30.09,SSE,166,0.0,2.0,87,0.00,,,0.00,weatherlink.com 1.10,2013-09-04 08:39:00,
2013-09-04 03:54:00,60.9,57.0,30.10,SSE,166,0.0,0.0,87,0.00,,,0.00,weatherlink.com 1.10,2013-09-04 08:54:00,
2013-09-04 04:09:00,59.4,56.0,30.10,SSE,166,0.0,0.0,89,0.00,,,0.00,weatherlink.com 1.10,2013-09-04 09:09:00,
2013-09-04 04:25:00,58.3,56.0,30.10,SSE,166,0.0,0.0,90,0.00,,,0.00,weatherlink.com 1.10,2013-09-04 09:25:00,
2013-09-04 04:40:00,57.4,55.0,30.11,SSE,166,0.0,0.0,92,0.00,,,0.00,weatherlink.com 1.10,2013-09-04 09:40:00,
2013-09-04 04:55:00,56.7,55.0,30.11,SSE,166,0.0,0.0,93,0.00,,,0.00,weatherlink.com 1.10,2013-09-04 09:55:00,
2013-09-04 05:10:00,57.2,56.0,30.11,SSE,166,0.0,1.0,95,0.00,,,0.00,weatherlink.com 1.10,2013-09-04 10:10:00,
2013-09-04 05:25:00,57.2,56.0,30.11,SSE,166,0.0,0.0,94,0.00,,,0.00,weatherlink.com 1.10,2013-09-04 10:25:00,
2013-09-04 05:40:00,57.2,56.0,30.11,SSE,166,0.0,1.0,94,0.00,,,0.00,weatherlink.com 1.10,2013-09-04 10:40:00,
2013-09-04 05:55:00,56.7,55.0,30.12,SSE,166,0.0,0.0,94,0.00,,,0.00,weatherlink.com 1.10,2013-09-04 10:55:00,
2013-09-04 06:10:00,55.9,54.0,30.12,SSE,166,0.0,0.0,94,0.00,,,0.00,weatherlink.com 1.10,2013-09-04 11:10:00,
2013-09-04 06:25:00,55.8,54.0,30.12,SSE,166,0.0,0.0,95,0.00,,,0.00,weatherlink.com 1.10,2013-09-04 11:25:00,
2013-09-04 06:40:00,55.9,55.0,30.13,SSE,166,0.0,0.0,96,0.00,,,0.00,weatherlink.com 1.10,2013-09-04 11:40:00,
2013-09-04 06:55:00,55.8,55.0,30.13,SSE,166,0.0,0.0,96,0.00,,,0.00,weatherlink.com 1.10,2013-09-04 11:55:00,
2013-09-04 07:10:00,56.4,56.0,30.13,SSE,166,0.0,0.0,97,0.00,,,0.00,weatherlink.com 1.10,2013-09-04 12:10:00,
2013-09-04 07:25:00,57.7,57.0,30.13,SSE,166,0.0,1.0,97,0.00,,,0.00,weatherlink.com 1.10,2013-09-04 12:25:00,
2013-09-04 07:40:00,59.2,58.0,30.14,SSE,166,0.0,1.0,95,0.00,,,0.00,weatherlink.com 1.10,2013-09-04 12:40:00,
2013-09-04 07:55:00,60.2,58.0,30.14,SSE,166,0.0,0.0,93,0.00,,,0.00,weatherlink.com 1.10,2013-09-04 12:55:00,
2013-09-04 08:10:00,61.9,59.0,30.13,SSE,166,1.0,3.0,90,0.00,,,0.00,weatherlink.com 1.10,2013-09-04 13:10:00,
2013-09-04 08:25:00,64.3,60.0,30.14,West,264,1.0,3.0,86,0.00,,,0.00,weatherlink.com 1.10,2013-09-04 13:25:00,
2013-09-04 08:40:00,65.6,61.0,30.14,SSW,202,0.0,3.0,84,0.00,,,0.00,weatherlink.com 1.10,2013-09-04 13:40:00,
2013-09-04 08:55:00,67.1,60.0,30.15,West,263,6.0,6.0,79,0.00,,,0.00,weatherlink.com 1.10,2013-09-04 13:55:00,
2013-09-04 09:10:00,68.6,61.0,30.15,West,271,1.0,6.0,77,0.00,,,0.00,weatherlink.com 1.10,2013-09-04 14:10:00,
2013-09-04 09:25:00,70.2,60.0,30.15,WNW,289,3.0,7.0,71,0.00,,,0.00,weatherlink.com 1.10,2013-09-04 14:25:00,
2013-09-04 09:40:00,72.0,60.0,30.15,WSW,246,1.0,5.0,67,0.00,,,0.00,weatherlink.com 1.10,2013-09-04 14:40:00,
2013-09-04 09:55:00,73.9,60.0,30.16,West,269,2.0,4.0,63,0.00,,,0.00,weatherlink.com 1.10,2013-09-04 14:55:00,
2013-09-04 10:10:00,74.9,61.0,30.16,South,190,2.0,6.0,62,0.00,,,0.00,weatherlink.com 1.10,2013-09-04 15:10:00,
2013-09-04 10:25:00,75.4,61.0,30.16,NNW,335,1.0,4.0,61,0.00,,,0.00,weatherlink.com 1.10,2013-09-04 15:25:00,
2013-09-04 10:40:00,76.7,60.0,30.16,WSW,254,4.0,5.0,57,0.00,,,0.00,weatherlink.com 1.10,2013-09-04 15:40:00,
2013-09-04 10:55:00,77.0,60.0,30.16,West,265,3.0,6.0,56,0.00,,,0.00,weatherlink.com 1.10,2013-09-04 15:55:00,
2013-09-04 11:10:00,77.8,59.0,30.15,West,271,0.0,6.0,53,0.00,,,0.00,weatherlink.com 1.10,2013-09-04 16:10:00,
2013-09-04 11:25:00,78.2,58.0,30.15,North,360,0.0,6.0,50,0.00,,,0.00,weatherlink.com 1.10,2013-09-04 16:25:00,
2013-09-04 11:40:00,79.1,59.0,30.15,NW,321,2.0,7.0,50,0.00,,,0.00,weatherlink.com 1.10,2013-09-04 16:40:00,
2013-09-04 11:55:00,79.6,58.0,30.15,WNW,291,7.0,8.0,48,0.00,,,0.00,weatherlink.com 1.10,2013-09-04 16:55:00,
2013-09-04 12:10:00,80.4,58.0,30.15,NW,315,4.0,8.0,46,0.00,,,0.00,weatherlink.com 1.10,2013-09-04 17:10:00,
2013-09-04 12:25:00,80.7,58.0,30.14,West,273,1.0,5.0,46,0.00,,,0.00,weatherlink.com 1.10,2013-09-04 17:25:00,
2013-09-04 12:40:00,81.8,58.0,30.14,NW,309,1.0,6.0,44,0.00,,,0.00,weatherlink.com 1.10,2013-09-04 17:40:00,
2013-09-04 12:55:00,82.1,57.0,30.14,SW,223,3.0,6.0,42,0.00,,,0.00,weatherlink.com 1.10,2013-09-04 17:55:00,
2013-09-04 13:10:00,82.4,57.0,30.14,NW,317,2.0,6.0,42,0.00,,,0.00,weatherlink.com 1.10,2013-09-04 18:10:00,
2013-09-04 13:25:00,82.5,56.0,30.13,NNW,348,4.0,8.0,41,0.00,,,0.00,weatherlink.com 1.10,2013-09-04 18:25:00,
2013-09-04 13:40:00,83.5,56.0,30.14,WNW,290,2.0,6.0,39,0.00,,,0.00,weatherlink.com 1.10,2013-09-04 18:40:00,
2013-09-04 13:55:00,84.1,57.0,30.13,NNE,17,6.0,8.0,39,0.00,,,0.00,weatherlink.com 1.10,2013-09-04 18:55:00,
2013-09-04 14:10:00,84.4,55.0,30.12,WNW,289,1.0,7.0,37,0.00,,,0.00,weatherlink.com 1.10,2013-09-04 19:10:00,
2013-09-04 14:25:00,84.6,53.0,30.12,NNE,15,0.0,8.0,34,0.00,,,0.00,weatherlink.com 1.10,2013-09-04 19:25:00,
2013-09-04 14:40:00,85.4,53.0,30.12,NW,316,2.0,6.0,33,0.00,,,0.00,weatherlink.com 1.10,2013-09-04 19:40:00,
2013-09-04 14:56:00,85.2,55.0,30.11,NNW,334,3.0,6.0,35,0.00,,,0.00,weatherlink.com 1.10,2013-09-04 19:56:00,
2013-09-04 15:11:00,84.0,53.0,30.11,NNW,346,8.0,8.0,34,0.00,,,0.00,weatherlink.com 1.10,2013-09-04 20:11:00,
2013-09-04 15:26:00,84.3,51.0,30.11,NNW,336,0.0,6.0,32,0.00,,,0.00,weatherlink.com 1.10,2013-09-04 20:26:00,
2013-09-04 15:41:00,84.7,51.0,30.11,NNE,31,2.0,8.0,31,0.00,,,0.00,weatherlink.com 1.10,2013-09-04 20:41:00,
2013-09-04 15:56:00,84.4,51.0,30.11,NE,34,1.0,6.0,32,0.00,,,0.00,weatherlink.com 1.10,2013-09-04 20:56:00,
2013-09-04 16:11:00,84.5,51.0,30.10,NE,36,2.0,6.0,31,0.00,,,0.00,weatherlink.com 1.10,2013-09-04 21:11:00,
2013-09-04 16:26:00,85.1,50.0,30.10,NNW,329,4.0,5.0,30,0.00,,,0.00,weatherlink.com 1.10,2013-09-04 21:26:00,
2013-09-04 16:41:00,85.2,52.0,30.09,North,355,1.0,5.0,32,0.00,,,0.00,weatherlink.com 1.10,2013-09-04 21:41:00,
2013-09-04 16:56:00,84.7,53.0,30.10,NW,311,1.0,4.0,34,0.00,,,0.00,weatherlink.com 1.10,2013-09-04 21:56:00,
2013-09-04 17:11:00,84.4,53.0,30.10,NNW,328,3.0,3.0,34,0.00,,,0.00,weatherlink.com 1.10,2013-09-04 22:11:00,
2013-09-04 17:26:00,84.4,53.0,30.10,NNW,333,1.0,5.0,34,0.00,,,0.00,weatherlink.com 1.10,2013-09-04 22:26:00,
2013-09-04 17:41:00,84.2,53.0,30.10,NNW,346,0.0,4.0,34,0.00,,,0.00,weatherlink.com 1.10,2013-09-04 22:41:00,
2013-09-04 17:56:00,83.5,57.0,30.10,NNW,346,1.0,2.0,41,0.00,,,0.00,weatherlink.com 1.10,2013-09-04 22:56:00,
2013-09-04 18:11:00,82.6,57.0,30.10,NNW,346,0.0,1.0,42,0.00,,,0.00,weatherlink.com 1.10,2013-09-04 23:11:00,
2013-09-04 18:26:00,81.3,60.0,30.10,NNE,15,0.0,1.0,49,0.00,,,0.00,weatherlink.com 1.10,2013-09-04 23:26:00,
2013-09-04 18:41:00,80.8,60.0,30.09,NNE,15,0.0,2.0,50,0.00,,,0.00,weatherlink.com 1.10,2013-09-04 23:41:00,
2013-09-04 18:56:00,79.9,63.0,30.09,NNE,15,0.0,1.0,56,0.00,,,0.00,weatherlink.com 1.10,2013-09-04 23:56:00,
2013-09-04 19:11:00,77.7,63.0,30.09,NE,47,0.0,0.0,60,0.00,,,0.00,weatherlink.com 1.10,2013-09-05 00:11:00,
2013-09-04 19:26:00,75.5,62.0,30.09,NE,47,0.0,0.0,63,0.00,,,0.00,weatherlink.com 1.10,2013-09-05 00:26:00,
2013-09-04 19:41:00,73.5,62.0,30.10,NE,47,0.0,0.0,68,0.00,,,0.00,weatherlink.com 1.10,2013-09-05 00:41:00,
2013-09-04 19:56:00,72.2,61.0,30.10,NE,47,0.0,0.0,69,0.00,,,0.00,weatherlink.com 1.10,2013-09-05 00:56:00,
2013-09-04 20:11:00,71.6,61.0,30.11,NE,47,0.0,1.0,70,0.00,,,0.00,weatherlink.com 1.10,2013-09-05 01:11:00,
2013-09-04 20:26:00,71.2,61.0,30.11,NE,47,0.0,0.0,69,0.00,,,0.00,weatherlink.com 1.10,2013-09-05 01:26:00,
2013-09-04 20:41:00,70.3,60.0,30.11,NE,47,0.0,0.0,69,0.00,,,0.00,weatherlink.com 1.10,2013-09-05 01:41:00,
2013-09-04 20:56:00,70.4,60.0,30.11,NE,48,0.0,2.0,69,0.00,,,0.00,weatherlink.com 1.10,2013-09-05 01:56:00,
2013-09-04 21:11:00,70.8,59.0,30.12,East,86,0.0,2.0,67,0.00,,,0.00,weatherlink.com 1.10,2013-09-05 02:11:00,
2013-09-04 21:26:00,71.0,59.0,30.12,SSE,150,2.0,3.0,67,0.00,,,0.00,weatherlink.com 1.10,2013-09-05 02:26:00,
2013-09-04 21:41:00,71.0,60.0,30.12,South,171,1.0,3.0,68,0.00,,,0.00,weatherlink.com 1.10,2013-09-05 02:41:00,
2013-09-04 21:56:00,71.2,60.0,30.12,South,176,0.0,3.0,68,0.00,,,0.00,weatherlink.com 1.10,2013-09-05 02:56:00,
2013-09-04 22:11:00,70.9,60.0,30.12,South,176,2.0,4.0,68,0.00,,,0.00,weatherlink.com 1.10,2013-09-05 03:11:00,
2013-09-04 22:26:00,70.6,60.0,30.12,South,176,0.0,3.0,68,0.00,,,0.00,weatherlink.com 1.10,2013-09-05 03:26:00,
2013-09-04 22:41:00,70.5,59.0,30.12,South,187,2.0,3.0,68,0.00,,,0.00,weatherlink.com 1.10,2013-09-05 03:41:00,
2013-09-04 22:56:00,70.2,60.0,30.12,South,188,0.0,3.0,69,0.00,,,0.00,weatherlink.com 1.10,2013-09-05 03:56:00,
2013-09-04 23:11:00,69.6,59.0,30.13,South,181,1.0,3.0,69,0.00,,,0.00,weatherlink.com 1.10,2013-09-05 04:11:00,
2013-09-04 23:26:00,68.7,59.0,30.13,South,181,1.0,2.0,72,0.00,,,0.00,weatherlink.com 1.10,2013-09-05 04:26:00,
2013-09-04 23:41:00,68.3,59.0,30.13,South,187,1.0,4.0,72,0.00,,,0.00,weatherlink.com 1.10,2013-09-05 04:41:00,
2013-09-04 23:56:00,68.3,59.0,30.12,South,177,2.0,3.0,72,0.00,,,0.00,weatherlink.com 1.10,2013-09-05 04:56:00,